QPF
0.00 0.00 0.00 0.00 0.00 0.00 0.00 0.00 0.00 0.00 0.00 0.00 0.00 0.00 0.00 0.00 0.00 0.00 0.00 0.00 0.00 0.00 0.00 0.00 0.00 0.00 0.00 0.00 0.00 0.00 0.00 0.00 0.00 0.01 0.01 0.01 0.03 0.05 0.06 0.07 0.11 0.13 0.13 0.16
0.00 0.00 0.00 0.00 0.00 0.00 0.00 0.00 0.00 0.00 0.00 0.00 0.00 0.00 0.00 0.00 0.00 0.00 0.00 0.00 0.00 0.00 0.00 0.00 0.00 0.00 0.00 0.00 0.00 0.00 0.00 0.00 0.00 0.00 0.01 0.01 0.02 0.03 0.05 0.07 0.10 0.11 0.10 0.11
0.00 0.00 0.00 0.00 0.00 0.00 0.00 0.00 0.00 0.00 0.00 0.00 0.00 0.01 0.00 0.00 0.00 0.00 0.00 0.00 0.00 0.00 0.00 0.00 0.00 0.00 0.00 0.00 0.00 0.01 0.01 0.01 0.01 0.01 0.01 0.01 0.01 0.03 0.04 0.06 0.07 0.07 0.07 0.08
0.00 0.00 0.00 0.00 0.00 0.00 0.00 0.00 0.00 0.00 0.00 0.00 0.00 0.01 0.01 0.00 0.00 0.00 0.00 0.00 0.00 0.00 0.00 0.00 0.00 0.00 0.00 0.01 0.01 0.01 0.01 0.02 0.03 0.03 0.03 0.03 0.03 0.04 0.05 0.06 0.06 0.07 0.08 0.08
0.00 0.00 0.00 0.00 0.00 0.00 0.00 0.00 0.00 0.00 0.00 0.00 0.00 0.00 0.01 0.00 0.00 0.00 0.00 0.00 0.01 0.01 0.00 0.00 0.00 0.00 0.01 0.01 0.01 0.01 0.02 0.04 0.05 0.06 0.07 0.06 0.06 0.05 0.05 0.06 0.06 0.08 0.10 0.10
0.00 0.00 0.00 0.00 0.00 0.00 0.00 0.00 0.00 0.00 0.00 0.00 0.00 0.00 0.01 0.00 0.00 0.00 0.00 0.01 0.00 0.00 0.01 0.00 0.00 0.01 0.01 0.02 0.03 0.03 0.04 0.07 0.08 0.09 0.12 0.11 0.09 0.09 0.07 0.07 0.07 0.08 0.09 0.10
0.00 0.00 0.00 0.00 0.00 0.00 0.00 0.00 0.00 0.00 0.00 0.00 0.00 0.00 0.00 0.00 0.00 0.00 0.00 0.00 0.00 0.01 0.01 0.01 0.01 0.02 0.02 0.03 0.04 0.04 0.06 0.08 0.09 0.11 0.13 0.12 0.11 0.12 0.10 0.10 0.11 0.10 0.11 0.10
0.00 0.00 0.00 0.00 0.00 0.00 0.00 0.00 0.00 0.00 0.00 0.00 0.00 0.00 0.00 0.00 0.00 0.00 0.00 0.00 0.00 0.01 0.01 0.01 0.01 0.01 0.02 0.05 0.05 0.05 0.07 0.08 0.08 0.09 0.09 0.09 0.12 0.14 0.16 0.16 0.15 0.14 0.15 0.13
0.00 0.00 0.00 0.00 0.00 0.00 0.00 0.00 0.00 0.00 0.00 0.00 0.00 0.00 0.00 0.00 0.00 0.00 0.00 0.00 0.00 0.00 0.00 0.01 0.01 0.01 0.02 0.05 0.06 0.06 0.08 0.09 0.10 0.09 0.08 0.08 0.12 0.16 0.19 0.19 0.18 0.18 0.17 0.15
0.00 0.00 0.00 0.00 0.00 0.00 0.00 0.00 0.00 0.00 0.00 0.00 0.00 0.00 0.00 0.00 0.00 0.00 0.00 0.00 0.00 0.00 0.00 0.01 0.01 0.01 0.02 0.03 0.04 0.05 0.07 0.09 0.10 0.09 0.09 0.08 0.15 0.20 0.20 0.21 0.18 0.20 0.21 0.15
0.00 0.00 0.00 0.00 0.00 0.00 0.00 0.00 0.00 0.00 0.00 0.00 0.00 0.00 0.00 0.00 0.00 0.00 0.00 0.00 0.00 0.00 0.00 0.00 0.01 0.01 0.01 0.02 0.03 0.03 0.04 0.06 0.08 0.09 0.13 0.14 0.16 0.16 0.17 0.17 0.18 0.17 0.17 0.14
0.00 0.00 0.00 0.00 0.00 0.00 0.00 0.00 0.00 0.00 0.00 0.00 0.00 0.00 0.00 0.00 0.00 0.00 0.00 0.00 0.00 0.00 0.00 0.00 0.00 0.01 0.01 0.01 0.01 0.02 0.03 0.06 0.05 0.05 0.09 0.13 0.12 0.13 0.12 0.11 0.14 0.13 0.14 0.12
0.00 0.00 0.00 0.00 0.00 0.00 0.00 0.00 0.00 0.00 0.00 0.00 0.00 0.00 0.00 0.00 0.00 0.00 0.00 0.00 0.00 0.00 0.00 0.00 0.00 0.01 0.01 0.01 0.01 0.01 0.03 0.05 0.03 0.03 0.04 0.08 0.09 0.09 0.08 0.08 0.09 0.09 0.10 0.09
0.00 0.00 0.00 0.00 0.00 0.00 0.00 0.00 0.00 0.00 0.00 0.00 0.00 0.00 0.00 0.00 0.00 0.00 0.00 0.00 0.00 0.00 0.00 0.00 0.00 0.01 0.01 0.00 0.00 0.01 0.01 0.01 0.01 0.02 0.02 0.04 0.05 0.05 0.05 0.05 0.05 0.05 0.05 0.05
0.00 0.00 0.00 0.00 0.00 0.00 0.00 0.00 0.00 0.00 0.00 0.00 0.00 0.00 0.00 0.00 0.00 0.00 0.00 0.00 0.00 0.00 0.00 0.00 0.00 0.00 0.00 0.00 0.00 0.00 0.00 0.00 0.00 0.01 0.02 0.03 0.04 0.03 0.02 0.02 0.03 0.02 0.02 0.02
0.00 0.00 0.00 0.00 0.00 0.00 0.00 0.00 0.00 0.00 0.00 0.00 0.00 0.00 0.00 0.00 0.00 0.00 0.00 0.00 0.00 0.00 0.00 0.00 0.00 0.00 0.00 0.00 0.00 0.00 0.00 0.00 0.00 0.00 0.01 0.01 0.01 0.02 0.02 0.02 0.02 0.01 0.02 0.02
0.00 0.00 0.00 0.00 0.00 0.00 0.00 0.00 0.00 0.00 0.00 0.00 0.00 0.00 0.00 0.00 0.00 0.00 0.00 0.00 0.00 0.00 0.00 0.00 0.00 0.00 0.00 0.00 0.00 0.00 0.00 0.00 0.00 0.00 0.00 0.00 0.00 0.01 0.01 0.01 0.02 0.03 0.02 0.02
0.00 0.00 0.00 0.00 0.00 0.00 0.00 0.00 0.00 0.00 0.00 0.00 0.00 0.00 0.00 0.00 0.00 0.00 0.00 0.00 0.00 0.00 0.00 0.00 0.00 0.00 0.00 0.00 0.00 0.00 0.00 0.00 0.00 0.00 0.00 0.00 0.00 0.00 0.01 0.01 0.01 0.02 0.02 0.02
0.00 0.00 0.00 0.00 0.00 0.00 0.00 0.00 0.00 0.00 0.00 0.00 0.00 0.00 0.00 0.00 0.00 0.00 0.00 0.00 0.00 0.00 0.00 0.00 0.00 0.00 0.00 0.00 0.00 0.00 0.00 0.00 0.00 0.00 0.00 0.00 0.00 0.00 0.00 0.00 0.00 0.00 0.01 0.01
0.00 0.00 0.00 0.00 0.00 0.00 0.00 0.00 0.00 0.00 0.00 0.00 0.00 0.00 0.00 0.00 0.00 0.00 0.00 0.00 0.00 0.00 0.00 0.00 0.00 0.00 0.00 0.00 0.00 0.00 0.00 0.00 0.00 0.00 0.00 0.00 0.00 0.00 0.00 0.00 0.00 0.01 0.01 0.01
0.00 0.00 0.00 0.00 0.00 0.00 0.00 0.00 0.00 0.00 0.00 0.00 0.00 0.00 0.00 0.00 0.00 0.00 0.00 0.00 0.00 0.00 0.00 0.00 0.00 0.00 0.00 0.00 0.00 0.00 0.00 0.00 0.00 0.00 0.00 0.00 0.00 0.00 0.00 0.00 0.00 0.01 0.01 0.02
0.00 0.00 0.00 0.00 0.00 0.00 0.00 0.00 0.00 0.00 0.00 0.00 0.00 0.00 0.00 0.00 0.00 0.00 0.00 0.00 0.00 0.00 0.00 0.00 0.00 0.00 0.00 0.00 0.00 0.00 0.00 0.00 0.00 0.00 0.00 0.00 0.00 0.00 0.00 0.00 0.01 0.01 0.02 0.02
0.00 0.00 0.00 0.00 0.00 0.00 0.00 0.00 0.00 0.00 0.00 0.00 0.00 0.00 0.00 0.00 0.00 0.00 0.00 0.00 0.00 0.00 0.00 0.00 0.00 0.00 0.00 0.00 0.00 0.00 0.00 0.00 0.00 0.00 0.00 0.00 0.00 0.00 0.00 0.00 0.01 0.00 0.01 0.01
0.00 0.00 0.00 0.00 0.00 0.00 0.00 0.00 0.00 0.00 0.00 0.00 0.00 0.00 0.00 0.00 0.00 0.00 0.00 0.00 0.00 0.00 0.00 0.00 0.00 0.00 0.00 0.00 0.00 0.00 0.00 0.00 0.00 0.00 0.00 0.00 0.00 0.00 0.00 0.00 0.00 0.00 0.00 0.01
0.00 0.00 0.00 0.00 0.00 0.00 0.00 0.00 0.00 0.00 0.00 0.00 0.00 0.00 0.00 0.00 0.00 0.00 0.00 0.00 0.00 0.00 0.00 0.00 0.00 0.00 0.00 0.00 0.00 0.00 0.00 0.00 0.00 0.00 0.00 0.00 0.00 0.00 0.00 0.00 0.00 0.00 0.00 0.00
0.00 0.00 0.00 0.00 0.00 0.00 0.00 0.00 0.00 0.00 0.00 0.00 0.00 0.00 0.00 0.00 0.00 0.00 0.00 0.00 0.00 0.00 0.00 0.00 0.00 0.00 0.00 0.00 0.00 0.00 0.00 0.00 0.00 0.00 0.00 0.00 0.00 0.00 0.00 0.00 0.00 0.00 0.00 0.00
MSLP
1011.84 1012.80 1013.62 1014.27 1014.75 1015.08 1015.34 1015.59 1015.88 1016.27 1016.74 1017.28 1017.83 1018.32 1018.70 1018.90 1018.91 1018.74 1018.43 1018.01 1017.57 1017.14 1016.78 1016.50 1016.27 1016.09 1015.90 1015.68 1015.41 1015.07 1014.69 1014.30 1013.93 1013.63 1013.41 1013.27 1013.22 1013.23 1013.25 1013.26 1013.25 1013.21 1013.17 1013.15
1012.99 1013.87 1014.60 1015.15 1015.52 1015.75 1015.90 1016.05 1016.26 1016.57 1016.98 1017.47 1017.98 1018.46 1018.84 1019.07 1019.13 1019.02 1018.78 1018.44 1018.06 1017.68 1017.34 1017.03 1016.76 1016.49 1016.21 1015.88 1015.51 1015.08 1014.63 1014.18 1013.78 1013.44 1013.19 1013.02 1012.92 1012.87 1012.83 1012.79 1012.75 1012.70 1012.67 1012.69
1013.96 1014.76 1015.40 1015.86 1016.14 1016.29 1016.37 1016.46 1016.61 1016.87 1017.22 1017.66 1018.14 1018.60 1018.99 1019.24 1019.35 1019.32 1019.16 1018.91 1018.60 1018.27 1017.95 1017.63 1017.31 1016.97 1016.59 1016.17 1015.71 1015.20 1014.69 1014.19 1013.75 1013.37 1013.07 1012.85 1012.69 1012.56 1012.45 1012.34 1012.24 1012.16 1012.12 1012.15
1014.68 1015.40 1015.95 1016.34 1016.57 1016.68 1016.74 1016.81 1016.95 1017.17 1017.50 1017.90 1018.34 1018.77 1019.14 1019.40 1019.55 1019.57 1019.48 1019.30 1019.06 1018.78 1018.48 1018.15 1017.80 1017.40 1016.96 1016.47 1015.94 1015.39 1014.83 1014.30 1013.83 1013.42 1013.08 1012.79 1012.55 1012.34 1012.14 1011.95 1011.77 1011.63 1011.56 1011.57
1015.17 1015.79 1016.27 1016.62 1016.83 1016.95 1017.04 1017.14 1017.29 1017.52 1017.83 1018.19 1018.59 1018.97 1019.30 1019.54 1019.68 1019.72 1019.67 1019.53 1019.34 1019.10 1018.82 1018.50 1018.13 1017.71 1017.24 1016.71 1016.15 1015.57 1015.00 1014.47 1013.98 1013.54 1013.16 1012.82 1012.51 1012.21 1011.92 1011.64 1011.39 1011.18 1011.05 1011.01
1015.47 1016.00 1016.43 1016.75 1016.98 1017.15 1017.30 1017.46 1017.67 1017.92 1018.23 1018.57 1018.91 1019.22 1019.48 1019.66 1019.75 1019.77 1019.71 1019.58 1019.41 1019.19 1018.93 1018.62 1018.26 1017.84 1017.36 1016.84 1016.28 1015.72 1015.16 1014.63 1014.15 1013.70 1013.30 1012.91 1012.54 1012.17 1011.80 1011.45 1011.11 1010.84 1010.64 1010.54
1015.70 1016.13 1016.51 1016.82 1017.08 1017.32 1017.55 1017.80 1018.08 1018.38 1018.70 1019.01 1019.29 1019.52 1019.68 1019.76 1019.78 1019.72 1019.62 1019.47 1019.29 1019.08 1018.83 1018.53 1018.19 1017.79 1017.34 1016.85 1016.33 1015.80 1015.28 1014.78 1014.32 1013.88 1013.46 1013.05 1012.64 1012.22 1011.79 1011.38 1010.98 1010.65 1010.39 1010.22
1015.92 1016.27 1016.59 1016.89 1017.19 1017.50 1017.82 1018.16 1018.51 1018.87 1019.19 1019.48 1019.69 1019.83 1019.89 1019.86 1019.77 1019.63 1019.45 1019.26 1019.04 1018.82 1018.58 1018.30 1017.99 1017.63 1017.22 1016.78 1016.31 1015.83 1015.36 1014.91 1014.48 1014.06 1013.64 1013.23 1012.80 1012.35 1011.89 1011.44 1011.01 1010.63 1010.33 1010.11
1016.18 1016.45 1016.72 1017.02 1017.34 1017.70 1018.09 1018.51 1018.92 1019.31 1019.65 1019.90 1020.07 1020.12 1020.08 1019.95 1019.75 1019.52 1019.27 1019.01 1018.76 1018.52 1018.28 1018.02 1017.73 1017.42 1017.06 1016.68 1016.27 1015.86 1015.44 1015.04 1014.64 1014.25 1013.85 1013.44 1013.02 1012.56 1012.10 1011.64 1011.20 1010.80 1010.47 1010.21
1016.47 1016.67 1016.91 1017.18 1017.51 1017.89 1018.32 1018.78 1019.23 1019.64 1019.97 1020.21 1020.33 1020.32 1020.20 1019.99 1019.72 1019.41 1019.10 1018.79 1018.51 1018.26 1018.01 1017.77 1017.51 1017.23 1016.93 1016.60 1016.26 1015.90 1015.54 1015.18 1014.83 1014.47 1014.10 1013.71 1013.30 1012.87 1012.42 1011.97 1011.54 1011.15 1010.82 1010.54
1016.75 1016.91 1017.10 1017.35 1017.66 1018.03 1018.46 1018.92 1019.37 1019.77 1020.10 1020.31 1020.40 1020.36 1020.20 1019.95 1019.64 1019.30 1018.96 1018.63 1018.33 1018.07 1017.82 1017.59 1017.35 1017.11 1016.85 1016.57 1016.28 1015.98 1015.67 1015.36 1015.05 1014.73 1014.39 1014.03 1013.65 1013.25 1012.84 1012.42 1012.02 1011.65 1011.33 1011.06
1016.95 1017.09 1017.26 1017.48 1017.75 1018.10 1018.49 1018.90 1019.31 1019.68 1019.97 1020.16 1020.24 1020.19 1020.04 1019.79 1019.49 1019.16 1018.82 1018.50 1018.21 1017.94 1017.70 1017.48 1017.26 1017.04 1016.81 1016.58 1016.33 1016.07 1015.82 1015.56 1015.29 1015.01 1014.72 1014.40 1014.06 1013.71 1013.33 1012.96 1012.59 1012.25 1011.95 1011.69
1017.04 1017.19 1017.36 1017.55 1017.79 1018.07 1018.39 1018.73 1019.06 1019.37 1019.61 1019.77 1019.84 1019.81 1019.69 1019.49 1019.24 1018.95 1018.66 1018.37 1018.10 1017.85 1017.62 1017.40 1017.19 1016.98 1016.78 1016.57 1016.36 1016.16 1015.95 1015.74 1015.53 1015.30 1015.05 1014.79 1014.50 1014.19 1013.86 1013.53 1013.21 1012.90 1012.62 1012.37
1017.04 1017.23 1017.40 1017.58 1017.77 1017.97 1018.20 1018.43 1018.67 1018.88 1019.06 1019.19 1019.25 1019.24 1019.17 1019.04 1018.87 1018.66 1018.43 1018.19 1017.95 1017.72 1017.50 1017.29 1017.08 1016.88 1016.69 1016.52 1016.35 1016.19 1016.03 1015.88 1015.73 1015.56 1015.37 1015.16 1014.93 1014.67 1014.39 1014.11 1013.82 1013.54 1013.28 1013.04
1017.00 1017.24 1017.43 1017.60 1017.74 1017.86 1017.98 1018.09 1018.20 1018.31 1018.40 1018.48 1018.53 1018.55 1018.54 1018.49 1018.40 1018.28 1018.12 1017.94 1017.75 1017.54 1017.32 1017.11 1016.90 1016.71 1016.53 1016.38 1016.25 1016.14 1016.05 1015.96 1015.87 1015.77 1015.65 1015.50 1015.32 1015.11 1014.88 1014.64 1014.38 1014.12 1013.87 1013.63
1016.98 1017.27 1017.49 1017.64 1017.73 1017.77 1017.77 1017.75 1017.74 1017.72 1017.73 1017.75 1017.78 1017.82 1017.86 1017.88 1017.87 1017.83 1017.75 1017.63 1017.47 1017.28 1017.07 1016.85 1016.64 1016.45 1016.29 1016.17 1016.08 1016.02 1015.99 1015.97 1015.95 1015.92 1015.86 1015.78 1015.66 1015.50 1015.31 1015.10 1014.86 1014.62 1014.37 1014.12
1017.02 1017.34 1017.57 1017.71 1017.75 1017.70 1017.60 1017.46 1017.31 1017.18 1017.10 1017.06 1017.07 1017.11 1017.19 1017.27 1017.34 1017.37 1017.35 1017.28 1017.15 1016.97 1016.77 1016.55 1016.35 1016.16 1016.02 1015.93 1015.88 1015.88 1015.91 1015.96 1016.00 1016.03 1016.04 1016.00 1015.93 1015.82 1015.66 1015.47 1015.26 1015.03 1014.78 1014.52
1017.11 1017.44 1017.67 1017.77 1017.75 1017.62 1017.42 1017.17 1016.91 1016.69 1016.52 1016.43 1016.42 1016.48 1016.58 1016.71 1016.83 1016.92 1016.96 1016.93 1016.83 1016.67 1016.48 1016.27 1016.07 1015.90 1015.78 1015.72 1015.72 1015.77 1015.85 1015.96 1016.06 1016.14 1016.19 1016.19 1016.16 1016.07 1015.95 1015.78 1015.58 1015.36 1015.11 1014.84
1017.18 1017.49 1017.67 1017.72 1017.64 1017.44 1017.16 1016.82 1016.49 1016.20 1015.98 1015.86 1015.83 1015.90 1016.04 1016.21 1016.39 1016.52 1016.60 1016.61 1016.54 1016.41 1016.23 1016.04 1015.86 1015.72 1015.63 1015.61 1015.65 1015.74 1015.87 1016.01 1016.15 1016.27 1016.34 1016.37 1016.36 1016.30 1016.19 1016.04 1015.85 1015.64 1015.40 1015.13
1017.14 1017.37 1017.49 1017.47 1017.32 1017.06 1016.71 1016.33 1015.95 1015.63 1015.39 1015.27 1015.26 1015.36 1015.54 1015.75 1015.98 1016.16 1016.29 1016.34 1016.31 1016.20 1016.06 1015.90 1015.75 1015.64 1015.59 1015.60 1015.68 1015.81 1015.97 1016.14 1016.30 1016.43 1016.52 1016.56 1016.55 1016.50 1016.40 1016.27 1016.10 1015.91 1015.68 1015.43
1016.87 1017.00 1017.03 1016.93 1016.72 1016.40 1016.02 1015.62 1015.23 1014.92 1014.71 1014.62 1014.65 1014.80 1015.02 1015.30 1015.57 1015.81 1015.99 1016.08 1016.10 1016.04 1015.94 1015.82 1015.72 1015.65 1015.64 1015.69 1015.80 1015.95 1016.13 1016.31 1016.48 1016.61 1016.70 1016.74 1016.73 1016.69 1016.60 1016.49 1016.35 1016.18 1015.99 1015.76
1016.33 1016.35 1016.27 1016.09 1015.81 1015.46 1015.07 1014.68 1014.32 1014.06 1013.90 1013.87 1013.97 1014.18 1014.47 1014.80 1015.14 1015.43 1015.67 1015.82 1015.89 1015.89 1015.84 1015.77 1015.71 1015.69 1015.72 1015.80 1015.94 1016.11 1016.30 1016.48 1016.64 1016.77 1016.85 1016.89 1016.89 1016.85 1016.79 1016.71 1016.60 1016.47 1016.32 1016.14
1015.58 1015.47 1015.29 1015.03 1014.71 1014.33 1013.95 1013.58 1013.28 1013.08 1012.99 1013.04 1013.21 1013.50 1013.86 1014.25 1014.65 1015.00 1015.29 1015.50 1015.63 1015.68 1015.69 1015.67 1015.67 1015.69 1015.75 1015.86 1016.01 1016.19 1016.38 1016.56 1016.72 1016.84 1016.93 1016.97 1016.99 1016.97 1016.94 1016.90 1016.84 1016.77 1016.67 1016.55
1014.73 1014.52 1014.25 1013.93 1013.56 1013.18 1012.80 1012.47 1012.23 1012.09 1012.08 1012.20 1012.44 1012.79 1013.21 1013.66 1014.11 1014.51 1014.85 1015.11 1015.29 1015.39 1015.45 1015.48 1015.52 1015.57 1015.66 1015.78 1015.94 1016.12 1016.31 1016.49 1016.65 1016.78 1016.88 1016.94 1016.99 1017.01 1017.03 1017.04 1017.05 1017.04 1017.01 1016.94
1013.99 1013.71 1013.37 1013.00 1012.60 1012.20 1011.84 1011.54 1011.33 1011.24 1011.27 1011.44 1011.73 1012.11 1012.57 1013.05 1013.53 1013.97 1014.35 1014.65 1014.87 1015.02 1015.11 1015.18 1015.24 1015.32 1015.42 1015.55 1015.70 1015.88 1016.06 1016.24 1016.40 1016.55 1016.67 1016.77 1016.86 1016.94 1017.02 1017.10 1017.17 1017.23 1017.27 1017.28
1013.55 1013.23 1012.86 1012.45 1012.03 1011.62 1011.25 1010.95 1010.75 1010.66 1010.70 1010.87 1011.15 1011.54 1011.99 1012.48 1012.96 1013.41 1013.81 1014.13 1014.38 1014.56 1014.68 1014.78 1014.85 1014.94 1015.03 1015.15 1015.30 1015.46 1015.63 1015.81 1015.98 1016.14 1016.30 1016.44 1016.59 1016.73 1016.88 1017.03 1017.18 1017.31 1017.42 1017.49
Thickness
5804 5791 5773 5772 5775 5772 5769 5762 5756 5746 5749 5738 5722 5711 5708 5708 5703 5698 5696 5695 5694 5693 5695 5696 5696 5697 5697 5697 5698 5699 5701 5705 5707 5709 5710 5712 5716 5721 5725 5729 5733 5735 5738 5740
5784 5771 5775 5778 5775 5770 5764 5754 5750 5743 5743 5732 5718 5708 5705 5701 5695 5691 5687 5685 5684 5682 5683 5683 5684 5685 5684 5685 5686 5688 5690 5693 5695 5697 5700 5703 5706 5711 5716 5720 5724 5728 5731 5734
5772 5764 5774 5769 5764 5755 5753 5745 5737 5730 5730 5727 5714 5699 5695 5695 5693 5688 5684 5680 5676 5673 5671 5672 5673 5673 5674 5674 5675 5677 5679 5682 5684 5687 5689 5692 5695 5699 5703 5709 5714 5720 5723 5727
5767 5767 5765 5760 5753 5742 5736 5740 5732 5726 5714 5709 5709 5684 5683 5686 5681 5678 5675 5672 5668 5666 5665 5664 5664 5664 5665 5666 5667 5667 5669 5671 5673 5676 5678 5679 5681 5684 5690 5697 5704 5711 5716 5721
5757 5760 5755 5748 5742 5736 5733 5736 5729 5723 5713 5706 5709 5692 5674 5684 5671 5669 5669 5667 5664 5662 5660 5659 5658 5657 5658 5658 5658 5659 5660 5661 5664 5666 5668 5670 5672 5676 5682 5688 5693 5700 5706 5712
5756 5760 5752 5744 5745 5741 5736 5731 5728 5723 5712 5693 5704 5693 5670 5672 5667 5665 5665 5664 5661 5659 5658 5656 5654 5653 5652 5652 5651 5652 5652 5653 5656 5658 5660 5662 5664 5667 5671 5676 5682 5689 5696 5702
5747 5751 5751 5748 5738 5741 5735 5718 5703 5698 5688 5691 5704 5692 5670 5675 5673 5668 5664 5662 5660 5658 5655 5652 5650 5648 5647 5646 5646 5646 5646 5646 5649 5651 5653 5655 5657 5660 5663 5667 5673 5680 5686 5692
5748 5734 5739 5739 5729 5720 5726 5718 5695 5682 5690 5693 5698 5685 5675 5682 5679 5674 5669 5664 5661 5658 5655 5652 5650 5648 5646 5645 5644 5643 5642 5642 5644 5646 5648 5649 5651 5653 5657 5661 5667 5673 5678 5684
5752 5728 5736 5735 5734 5726 5718 5717 5716 5699 5703 5698 5696 5687 5680 5683 5678 5673 5669 5664 5660 5658 5656 5653 5651 5650 5647 5645 5644 5643 5641 5640 5641 5643 5645 5646 5647 5649 5652 5656 5661 5666 5672 5677
5758 5735 5734 5736 5732 5730 5723 5715 5710 5700 5684 5678 5688 5685 5675 5674 5672 5670 5667 5664 5662 5660 5658 5656 5654 5652 5650 5648 5646 5645 5643 5642 5641 5642 5643 5644 5644 5645 5648 5652 5655 5659 5664 5670
5757 5744 5731 5731 5723 5714 5718 5716 5710 5705 5697 5676 5666 5671 5686 5678 5675 5671 5670 5668 5666 5663 5661 5659 5657 5655 5653 5651 5649 5647 5645 5643 5642 5642 5643 5643 5643 5645 5647 5648 5651 5654 5658 5663
5753 5744 5737 5730 5728 5726 5718 5710 5704 5690 5691 5694 5680 5673 5693 5687 5683 5679 5675 5673 5671 5669 5667 5664 5661 5658 5656 5653 5651 5649 5647 5645 5644 5643 5643 5643 5643 5644 5644 5646 5648 5650 5654 5657
5750 5739 5728 5715 5713 5718 5718 5712 5707 5702 5699 5697 5682 5678 5696 5695 5689 5685 5680 5677 5675 5674 5671 5668 5664 5662 5659 5656 5654 5652 5650 5648 5646 5645 5644 5643 5642 5642 5642 5643 5645 5647 5649 5651
5743 5743 5731 5713 5714 5722 5719 5714 5710 5702 5696 5698 5697 5692 5696 5695 5690 5687 5684 5682 5681 5678 5675 5672 5668 5666 5664 5661 5659 5656 5653 5652 5650 5647 5644 5642 5642 5641 5641 5641 5642 5643 5644 5645
5748 5744 5742 5735 5733 5729 5723 5719 5715 5708 5707 5700 5701 5699 5702 5701 5695 5692 5690 5688 5685 5682 5679 5676 5673 5670 5668 5666 5663 5660 5657 5655 5652 5648 5645 5643 5642 5641 5640 5639 5638 5638 5638 5639
5752 5745 5743 5737 5738 5733 5728 5729 5724 5717 5714 5710 5707 5706 5715 5710 5704 5698 5696 5692 5687 5685 5682 5681 5678 5675 5672 5670 5666 5663 5660 5658 5655 5650 5646 5644 5642 5640 5639 5637 5635 5634 5633 5633
5755 5747 5738 5738 5742 5735 5731 5742 5735 5728 5727 5720 5709 5715 5718 5710 5705 5702 5700 5696 5692 5690 5687 5684 5682 5679 5677 5675 5671 5666 5664 5661 5656 5651 5648 5645 5642 5639 5636 5635 5632 5630 5628 5627
5755 5748 5741 5737 5739 5722 5740 5758 5751 5739 5736 5735 5729 5726 5722 5717 5713 5711 5708 5702 5698 5695 5691 5688 5686 5684 5684 5680 5677 5673 5669 5663 5657 5652 5649 5645 5641 5638 5635 5632 5629 5626 5625 5623
5756 5746 5737 5737 5730 5742 5745 5754 5749 5737 5734 5746 5738 5733 5728 5725 5717 5714 5716 5711 5705 5701 5697 5694 5692 5690 5688 5684 5680 5676 5671 5665 5658 5653 5649 5645 5641 5637 5633 5630 5627 5624 5622 5619
5751 5748 5735 5734 5724 5730 5745 5758 5760 5745 5733 5758 5750 5739 5732 5724 5707 5714 5721 5716 5710 5705 5702 5698 5696 5694 5689 5686 5683 5678 5672 5665 5659 5654 5651 5647 5642 5637 5632 5629 5626 5623 5620 5617
5739 5738 5730 5726 5727 5748 5756 5760 5754 5727 5738 5760 5756 5747 5738 5728 5723 5726 5725 5719 5714 5709 5705 5702 5699 5695 5691 5689 5685 5679 5673 5666 5661 5657 5653 5648 5644 5639 5633 5629 5626 5623 5620 5617
5751 5747 5743 5740 5731 5738 5759 5756 5747 5752 5766 5763 5759 5754 5745 5739 5736 5730 5726 5720 5716 5712 5708 5704 5700 5697 5695 5692 5687 5681 5673 5670 5665 5660 5655 5650 5646 5642 5637 5631 5627 5624 5620 5616
5759 5760 5755 5754 5752 5763 5766 5766 5771 5773 5768 5767 5763 5758 5752 5744 5738 5733 5727 5723 5719 5716 5711 5707 5703 5699 5697 5695 5689 5682 5677 5674 5668 5663 5658 5654 5650 5644 5638 5633 5628 5624 5620 5616
5772 5774 5761 5756 5765 5774 5775 5774 5775 5774 5770 5771 5768 5762 5756 5747 5741 5735 5730 5726 5722 5718 5715 5710 5706 5701 5699 5697 5692 5688 5683 5678 5672 5667 5662 5658 5653 5647 5641 5635 5630 5625 5620 5615
5764 5763 5756 5754 5765 5774 5777 5777 5776 5774 5773 5771 5769 5765 5758 5751 5744 5739 5733 5729 5725 5721 5718 5713 5708 5704 5702 5700 5695 5691 5687 5682 5677 5672 5668 5662 5656 5650 5644 5638 5632 5627 5621 5616
5764 5763 5754 5751 5768 5767 5770 5778 5778 5772 5769 5768 5765 5761 5759 5754 5747 5742 5737 5733 5729 5724 5721 5716 5711 5707 5705 5703 5699 5695 5690 5685 5681 5677 5672 5666 5660 5655 5650 5644 5636 5630 5626 5621